Temperature
18 18 18 18 18 17 17 17 17 17 17 17 17 17 17 17 17 16 16 16 16 16 16 16 16 16 16 16 16 16 16 15 15 15 15 15 15 15
18 18 18 18 17 17 17 17 17 17 17 17 17 17 17 16 16 16 16 16 16 16 16 16 16 16 16 16 16 15 15 15 15 15 15 15 15 14
18 17 17 17 17 17 17 17 17 17 16 17 16 16 16 16 16 16 15 15 15 16 15 15 15 15 15 15 15 15 15 15 15 15 15 14 14 14
17 17 17 17 17 17 17 16 16 16 16 16 16 16 16 16 16 15 15 15 15 15 15 15 15 15 15 15 15 15 15 14 14 14 14 14 14 14
17 17 17 17 17 17 16 16 16 16 16 16 16 15 15 15 15 15 15 15 15 14 14 14 14 14 14 14 14 14 14 14 14 14 14 14 14 13
17 17 17 17 17 17 16 16 16 16 16 15 15 15 15 15 15 15 15 14 14 14 14 14 14 14 14 14 14 14 14 14 14 14 13 13 13 13
17 17 17 17 17 16 16 16 16 16 15 15 15 15 14 14 14 14 14 14 14 14 14 14 14 13 13 13 13 13 13 13 13 13 13 13 13 12
17 17 17 17 16 16 16 16 16 15 15 15 15 14 14 14 14 14 14 13 13 13 13 13 13 13 13 13 13 13 13 12 12 12 12 12 12 12
17 17 16 16 16 16 16 15 15 15 15 15 14 14 14 14 14 14 13 13 13 13 13 13 13 13 12 12 12 12 12 12 12 12 11 11 11 11
17 16 16 16 16 16 15 15 15 15 14 14 14 14 14 14 13 13 13 13 13 13 13 13 12 12 12 12 12 12 12 11 11 11 11 11 11 11
16 16 16 16 16 16 15 15 14 14 14 14 14 14 14 13 13 13 13 13 12 12 12 12 12 12 12 12 12 11 11 11 11 11 11 10 10 10
16 16 16 15 15 15 15 14 14 14 14 14 14 13 13 13 13 13 13 12 12 12 12 12 12 11 11 11 11 11 11 11 10 10 10 10 10 10
15 15 15 15 15 15 14 14 13 13 13 13 13 13 13 13 12 12 12 12 12 12 12 11 11 11 11 11 11 11 11 10 10 10 10 10 9 9
15 15 15 15 14 14 14 13 13 13 13 12 12 12 12 12 12 12 12 12 12 12 12 11 11 11 11 10 10 10 10 10 10 10 10 9 9 9
14 14 14 14 14 13 13 13 12 12 12 12 12 12 12 12 12 12 12 11 11 11 11 11 11 11 10 10 10 10 10 10 10 10 9 9 9 9
14 13 13 13 13 13 12 12 12 12 12 12 12 12 11 11 11 11 11 11 11 11 11 11 11 10 10 10 10 10 10 10 10 9 9 9 9 8
13 13 13 13 12 12 12 12 12 11 11 11 11 11 11 11 11 11 11 10 10 10 10 10 10 10 10 10 10 10 9 9 9 9 9 8 8 8
13 12 12 12 12 12 12 12 11 11 11 11 11 11 11 11 11 10 10 10 10 10 10 10 10 9 9 9 9 9 9 9 9 9 8 8 8 8
12 12 12 12 12 11 11 11 11 11 11 11 10 10 10 10 10 10 10 10 10 10 10 9 9 9 9 9 9 9 9 9 9 8 8 8 8 8
12 12 11 11 11 11 11 11 11 10 10 10 10 10 10 10 10 10 10 10 9 9 9 9 9 9 9 9 9 9 9 8 8 8 8 8 8 8
11 11 11 11 11 11 10 10 10 10 10 10 10 10 10 10 10 10 9 9 9 9 9 9 9 9 9 8 8 8 8 8 8 8 8 8 7 7
11 11 11 10 10 10 10 10 10 10 10 9 9 9 9 9 9 9 9 9 9 9 8 8 8 8 8 8 8 8 8 8 8 8 8 8 7 7
11 10 10 10 10 10 10 9 9 9 9 9 9 9 9 9 8 8 8 8 8 8 8 8 8 8 8 8 8 8 8 8 8 8 7 7 7 7
Wind_Speed
3 3 2 3 2 2 3 2 2 4 3 2 1 1 1 1 2 2 2 5 6 6 6 7 7 7 7 7 7 7 7 7 8 8 9 10 10 10
2 2 2 2 2 2 3 2 2 3 3 2 1 1 2 2 1 1 2 4 5 6 6 6 5 5 5 5 5 5 6 6 6 7 7 7 7 8
2 2 1 1 2 2 2 3 3 2 3 3 2 1 1 1 1 1 3 3 3 5 5 6 5 5 5 4 4 4 4 4 5 5 5 5 6 7
2 1 1 1 1 2 2 3 3 2 3 3 2 1 1 0 1 2 1 1 2 4 6 6 6 6 5 4 3 2 2 3 3 3 3 3 3 4
2 1 1 1 2 2 2 3 3 3 2 2 3 1 1 1 1 2 1 1 1 3 5 6 6 5 4 3 3 3 3 2 2 2 2 2 2 2
1 1 0 0 1 2 3 2 2 3 2 2 2 1 1 1 1 1 1 1 1 1 2 3 5 5 4 4 3 3 3 3 2 2 2 1 1 2
2 2 1 2 1 1 2 2 3 3 2 2 1 1 1 2 2 2 2 1 1 1 0 1 3 3 3 3 3 3 3 3 2 2 2 2 1 1
3 2 3 3 2 1 0 1 1 2 3 3 1 1 1 2 2 2 2 2 1 1 1 0 1 1 2 3 4 4 3 3 3 2 2 2 2 2
3 3 3 2 2 1 2 2 1 2 3 2 2 2 1 2 2 3 2 2 2 1 0 1 1 0 2 3 6 5 4 3 2 2 1 1 2 2
3 3 2 2 1 1 1 1 1 1 2 1 1 2 2 2 2 3 3 3 2 1 0 1 0 1 1 3 6 5 4 3 3 3 2 1 1 2
3 2 2 3 2 2 1 2 1 1 1 1 1 2 2 3 2 2 3 2 2 0 0 1 1 1 1 2 5 6 5 4 4 3 3 2 2 2
4 4 3 3 3 1 1 2 2 2 1 1 1 2 3 3 3 2 2 2 2 0 1 1 1 1 1 1 2 4 4 5 5 4 3 2 1 1
4 4 3 5 4 2 2 2 2 3 3 2 1 1 1 1 1 1 1 1 1 1 1 1 1 1 1 1 1 2 3 3 4 3 4 4 2 1
3 4 4 7 5 4 3 3 3 3 2 1 1 1 1 1 1 0 0 1 1 1 1 1 1 1 1 2 1 1 2 3 3 3 3 4 4 4
2 5 6 7 6 5 6 4 3 2 2 2 2 1 1 1 1 1 1 1 1 3 3 3 2 2 2 3 2 1 1 2 3 2 2 3 3 3
3 5 6 6 5 4 4 4 4 3 3 2 1 1 1 1 1 1 1 1 1 2 2 3 3 2 3 4 3 2 1 2 2 2 2 3 4 4
4 3 3 4 4 4 4 4 4 3 3 3 2 1 1 1 1 1 1 2 1 1 1 1 2 3 2 2 2 2 1 1 1 2 2 3 3 4
5 4 5 5 5 5 5 4 4 3 3 3 2 1 2 2 2 1 1 1 2 1 1 0 1 1 2 2 2 2 1 1 1 2 2 3 3 4
5 5 4 4 4 4 4 4 4 3 2 3 2 2 2 2 1 1 1 1 1 1 1 0 0 1 3 3 2 2 2 2 2 2 3 2 3 3
5 4 4 4 4 3 3 2 2 2 2 3 2 2 2 2 2 2 1 1 2 2 2 1 1 1 2 3 3 3 5 3 2 2 2 2 2 2
5 4 4 4 3 2 2 2 2 2 1 2 2 2 2 2 2 2 2 1 2 2 2 2 2 3 2 2 3 2 2 5 4 2 2 2 3 2
3 3 2 2 2 2 1 1 1 1 1 1 1 1 2 1 2 2 2 1 2 2 2 2 1 1 1 3 4 4 2 2 4 6 6 5 3 2
3 2 1 1 1 1 1 1 0 0 0 1 1 1 1 1 2 2 2 2 2 2 2 2 2 2 3 3 4 3 3 2 2 3 4 7 8 7
Wind_Direction
249 251 251 278 276 276 266 252 265 286 298 306 351 36 66 113 143 169 187 186 188 203 214 218 225 233 239 242 247 250 251 251 255 258 259 259 255 249
230 253 277 291 305 297 298 295 269 269 283 295 297 335 356 346 66 170 211 185 189 199 201 207 213 221 228 231 234 240 240 243 250 254 254 253 252 251
244 235 250 288 322 316 313 309 308 297 283 298 326 325 331 345 344 293 227 180 174 190 192 195 199 201 208 213 216 231 228 233 242 245 246 249 253 253
231 247 274 287 304 303 309 301 296 284 280 291 301 287 288 286 281 272 276 172 151 176 183 188 191 190 189 187 188 199 208 226 242 248 246 246 246 249
223 223 260 307 308 316 299 306 310 308 298 283 287 291 313 336 319 312 323 349 192 160 169 185 189 181 179 182 185 187 183 190 203 218 226 230 228 236
188 194 200 249 316 304 287 304 306 308 293 274 280 304 342 328 346 326 316 304 298 185 153 174 176 172 171 171 178 184 183 184 185 192 198 206 223 231
195 189 153 107 83 330 308 333 327 311 300 283 277 314 347 356 351 318 324 302 316 32 73 159 152 154 159 155 159 171 172 171 171 174 175 183 201 197
196 195 174 146 158 176 308 333 305 302 315 315 318 330 338 349 335 317 334 325 306 10 17 310 140 144 150 153 141 135 149 168 174 173 173 176 188 187
190 203 228 170 171 193 213 213 217 253 263 292 323 324 329 336 315 306 308 303 286 281 318 271 167 137 133 146 153 147 141 134 134 148 166 193 222 220
188 196 190 137 59 11 265 229 235 250 273 254 293 310 321 309 292 286 280 273 250 266 203 261 240 200 137 152 175 171 168 169 173 180 190 213 259 253
181 163 161 142 97 28 283 254 252 270 346 50 194 255 275 271 283 303 298 297 296 280 12 290 295 278 204 175 182 183 182 190 197 200 202 214 253 260
167 144 125 132 130 106 287 285 270 271 277 279 255 249 239 236 235 236 287 296 318 325 49 325 323 5 287 193 179 186 203 213 209 215 218 224 259 245
186 175 169 161 157 179 254 277 264 280 264 236 230 231 229 215 206 218 219 244 302 309 5 335 314 318 252 279 222 193 192 197 199 217 217 220 224 200
193 175 169 168 176 198 226 265 274 276 264 246 235 213 219 242 206 154 135 236 218 214 231 263 276 266 263 268 262 218 206 196 179 185 197 209 217 224
180 163 163 174 189 206 220 232 238 248 251 249 241 235 223 221 193 185 219 227 229 236 219 217 231 253 253 262 259 220 218 212 187 187 192 198 209 214
187 169 169 183 207 216 195 211 218 238 251 254 247 231 165 178 197 194 215 227 240 245 242 231 221 239 262 266 260 244 207 206 202 197 206 212 201 208
188 179 187 188 197 200 201 202 206 218 243 258 255 231 219 223 226 214 226 243 260 267 246 274 251 231 244 265 273 263 226 223 197 198 224 235 218 204
185 193 197 200 203 202 202 203 202 211 236 243 247 236 235 238 240 227 218 246 265 276 290 288 327 314 301 293 272 277 264 238 227 228 236 247 243 216
193 203 203 208 213 214 210 203 203 204 224 239 233 238 245 249 251 245 222 245 270 281 279 244 41 320 303 295 274 261 282 274 247 232 232 238 252 236
209 202 206 213 215 221 219 216 215 209 214 237 232 236 243 247 246 244 229 232 261 271 283 276 221 238 267 285 282 266 241 245 257 254 248 251 253 249
208 211 213 216 215 215 221 227 221 212 216 230 243 250 251 254 261 269 261 252 258 257 268 266 242 231 246 274 282 275 241 226 239 254 261 267 270 257
212 217 206 207 203 207 206 211 218 203 209 224 233 253 255 260 273 276 283 279 273 283 293 297 291 275 271 276 285 290 290 265 246 253 255 244 250 263
206 215 201 181 177 183 165 179 218 229 192 287 273 263 267 264 271 280 293 298 304 310 315 313 310 294 278 275 281 286 294 289 274 253 251 242 243 248
Height
1532 1532 1531 1531 1532 1531 1531 1531 1531 1529 1528 1528 1527 1526 1525 1524 1523 1522 1521 1521 1521 1521 1520 1520 1520 1520 1520 1520 1520 1520 1521 1521 1521 1521 1521 1521 1522 1522
1530 1529 1529 1529 1529 1529 1528 1528 1528 1528 1526 1525 1525 1524 1523 1521 1520 1519 1519 1518 1517 1517 1517 1516 1516 1516 1516 1516 1516 1516 1516 1516 1516 1516 1516 1516 1516 1517
1527 1527 1527 1527 1526 1526 1526 1526 1525 1525 1524 1523 1522 1521 1520 1518 1517 1517 1516 1515 1515 1514 1514 1513 1513 1512 1512 1512 1511 1511 1511 1511 1511 1511 1511 1511 1511 1511
1525 1525 1525 1524 1524 1523 1523 1523 1522 1522 1522 1520 1519 1518 1517 1516 1515 1515 1514 1513 1512 1511 1511 1510 1510 1509 1509 1508 1508 1507 1507 1507 1506 1506 1506 1506 1506 1506
1522 1522 1522 1521 1521 1521 1520 1520 1520 1519 1519 1518 1517 1517 1516 1515 1513 1513 1512 1511 1510 1509 1509 1508 1508 1507 1506 1505 1505 1504 1503 1503 1503 1502 1502 1502 1502 1502
1519 1519 1519 1519 1519 1518 1518 1517 1517 1516 1516 1516 1515 1514 1514 1513 1512 1511 1510 1509 1508 1508 1507 1506 1505 1505 1504 1503 1502 1501 1501 1500 1499 1499 1499 1499 1498 1498
1516 1516 1516 1516 1516 1516 1515 1515 1514 1514 1513 1513 1513 1512 1511 1510 1510 1509 1508 1507 1506 1506 1505 1504 1503 1502 1501 1500 1500 1499 1498 1498 1497 1496 1496 1495 1495 1495
1513 1513 1513 1513 1513 1513 1512 1512 1511 1511 1511 1510 1509 1509 1508 1508 1507 1507 1506 1505 1504 1504 1503 1503 1502 1501 1500 1499 1498 1497 1496 1496 1495 1494 1494 1493 1493 1493
1510 1510 1510 1510 1510 1509 1509 1509 1508 1508 1508 1508 1506 1506 1505 1505 1505 1504 1503 1503 1502 1502 1501 1501 1501 1500 1499 1498 1497 1496 1495 1494 1494 1493 1492 1491 1491 1491
1506 1507 1507 1507 1507 1506 1506 1505 1505 1505 1504 1504 1504 1503 1503 1502 1502 1502 1501 1501 1500 1500 1500 1499 1498 1498 1497 1497 1496 1495 1494 1493 1492 1491 1491 1490 1489 1489
1502 1503 1504 1503 1504 1503 1503 1503 1502 1502 1502 1501 1501 1501 1500 1500 1499 1499 1499 1498 1498 1498 1498 1497 1496 1496 1495 1495 1494 1493 1493 1492 1491 1490 1489 1488 1488 1487
1498 1499 1500 1500 1500 1500 1500 1500 1500 1499 1499 1499 1498 1498 1498 1497 1497 1496 1496 1496 1496 1496 1495 1495 1494 1494 1493 1493 1492 1491 1490 1490 1489 1488 1487 1487 1486 1485
1494 1495 1495 1496 1497 1497 1497 1497 1497 1497 1497 1496 1496 1496 1495 1495 1495 1494 1494 1494 1494 1494 1494 1493 1492 1491 1491 1491 1490 1489 1488 1488 1487 1486 1485 1484 1484 1484
1490 1491 1492 1493 1493 1493 1494 1494 1495 1495 1494 1494 1494 1493 1493 1493 1493 1492 1492 1491 1491 1491 1491 1491 1490 1489 1489 1488 1487 1487 1486 1486 1485 1484 1483 1482 1482 1481
1487 1487 1489 1489 1490 1490 1491 1492 1492 1492 1492 1492 1492 1491 1491 1491 1491 1490 1490 1489 1489 1488 1488 1488 1487 1487 1486 1486 1485 1484 1484 1483 1482 1481 1480 1480 1479 1479
1483 1484 1485 1486 1487 1487 1488 1488 1488 1489 1489 1489 1489 1489 1489 1489 1488 1488 1487 1487 1486 1486 1486 1485 1484 1484 1483 1483 1483 1482 1481 1480 1480 1479 1478 1478 1477 1477
1479 1480 1481 1482 1483 1483 1484 1484 1485 1485 1486 1487 1487 1487 1487 1486 1486 1486 1485 1485 1484 1483 1483 1483 1482 1481 1481 1481 1480 1479 1479 1478 1477 1476 1475 1475 1474 1474
1476 1476 1477 1478 1479 1480 1480 1481 1481 1482 1483 1484 1484 1484 1484 1484 1484 1484 1483 1483 1482 1482 1481 1481 1480 1479 1479 1479 1479 1477 1476 1475 1474 1474 1473 1472 1471 1470
1472 1473 1474 1475 1476 1477 1477 1477 1478 1478 1479 1481 1481 1481 1482 1481 1481 1481 1481 1481 1480 1480 1479 1479 1478 1477 1477 1476 1476 1475 1474 1473 1472 1471 1470 1469 1468 1467
1468 1469 1470 1472 1472 1473 1474 1474 1475 1475 1476 1477 1478 1478 1479 1479 1479 1478 1478 1478 1478 1477 1477 1477 1476 1475 1474 1474 1473 1472 1472 1471 1470 1469 1468 1466 1466 1465
1464 1466 1467 1468 1469 1469 1470 1471 1471 1472 1473 1474 1474 1475 1476 1476 1476 1475 1475 1475 1475 1475 1474 1474 1473 1473 1472 1472 1471 1469 1469 1468 1467 1466 1465 1464 1463 1462
1461 1462 1463 1464 1465 1466 1466 1467 1468 1469 1469 1470 1471 1471 1472 1472 1472 1472 1472 1472 1472 1471 1471 1471 1470 1470 1469 1469 1468 1467 1466 1465 1464 1464 1463 1462 1460 1458
1457 1458 1459 1460 1462 1462 1462 1463 1464 1464 1465 1466 1467 1468 1468 1469 1469 1469 1469 1469 1469 1468 1468 1468 1467 1467 1466 1466 1465 1464 1463 1462 1461 1460 1459 1459 1458 1457